GW7932 Weather Reports


time (UTC)temp
F
wind
direction
speed
knots
gust
knots
rain 1hr
in
rain 24hr
in
rain mn
in
humidity
%
barometer
mb
20260906035703 76 335 1.7 2.6 0.00 0.00 0.00 89 1010.9
20260906035159 75 295 0.0 0.0 0.00 0.00 0.00 90 1010.6
20260906034659 75 287 0.0 0.0 0.00 0.00 0.00 91 1010.6
20260906034153 75 287 0.0 0.0 0.00 0.00 0.00 91 1010.7
20260906033650 75 287 0.0 0.0 0.00 0.00 0.00 90 1010.7
20260906033149 75 287 0.0 0.0 0.00 0.00 0.00 90 1010.5
20260906032646 75 287 0.0 0.0 0.00 0.00 0.00 90 1010.6
20260906032146 75 287 0.0 0.0 0.00 0.00 0.00 90 1010.5
20260906031641 75 287 0.0 0.0 0.00 0.00 0.00 90 1010.3
20260906031137 76 287 0.0 0.0 0.00 0.00 0.00 89 1010.3
20260906030636 76 286 0.0 0.0 0.00 0.00 0.00 89 1010.4
20260906030131 76 285 0.0 0.0 0.00 0.00 0.00 88 1010.3
20260906025630 76 294 0.0 0.0 0.00 0.00 0.00 88 1010.3
20260906025130 76 294 0.0 0.0 0.00 0.00 0.00 87 1010.3
20260906024624 76 294 0.0 0.0 0.00 0.00 0.00 87 1010.1
20260906024119 77 293 0.0 0.0 0.00 0.00 0.00 86 1010.2
20260906023615 77 294 0.0 0.0 0.00 0.00 0.00 85 1010.1
20260906023109 77 302 0.0 0.0 0.00 0.00 0.00 85 1010.0
20260906022604 77 300 0.0 0.0 0.00 0.00 0.00 83 1010.0
20260906022100 77 299 0.0 0.0 0.00 0.00 0.00 82 1010.0
20260906021556 77 300 0.0 0.0 0.00 0.00 0.00 82 1009.7
20260906021054 77 301 0.0 0.9 0.00 0.00 0.00 81 1009.5
20260906020554 77 300 0.0 0.0 0.00 0.00 0.00 81 1009.4
20260906020054 78 298 0.9 0.9 0.00 0.00 0.00 79 1009.3
20260906015554 79 313 0.0 0.0 0.00 0.00 0.00 77 1009.2
20260906015053 79 314 0.0 0.0 0.00 0.00 0.00 76 1009.1
20260906014548 79 297 0.0 0.0 0.00 0.00 0.00 76 1009.1
20260906014044 79 293 0.9 1.7 0.00 0.00 0.00 75 1008.9
20260906013539 79 308 0.9 0.9 0.00 0.00 0.00 75 1008.8
20260906013035 80 309 0.0 0.0 0.00 0.00 0.00 74 1008.9
20260906012530 79 296 1.7 1.7 0.00 0.00 0.00 74 1009.1
20260906012029 79 297 0.9 0.9 0.00 0.00 0.00 73 1009.5
20260906011525 80 293 0.9 0.9 0.00 0.00 0.00 72 1009.5
20260906011025 80 311 0.0 0.9 0.00 0.00 0.00 70 1009.7
20260906010520 81 296 0.0 0.9 0.00 0.00 0.00 67 1009.9
20260906010017 81 321 0.0 0.0 0.00 0.00 0.00 65 1009.8
20260906005516 81 167 4.3 7.8 0.00 0.00 0.00 66 1010.1
20260906005015 84 35 3.5 5.2 0.00 0.00 0.00 62 1010.0
20260906004514 82 313 2.6 2.6 0.00 0.00 0.00 67 1009.8
20260906004010 83 7 1.7 2.6 0.00 0.00 0.00 67 1009.8
20260906003505 85 7 3.5 3.5 0.00 0.00 0.00 64 1009.8
20260906003001 87 44 3.5 3.5 0.00 0.00 0.00 67 1009.7
20260906002501 88 317 1.7 1.7 0.00 0.00 0.00 66 1009.5
20260906001956 87 321 0.9 0.9 0.00 0.00 0.00 65 1009.4
20260906001452 87 300 0.0 0.0 0.00 0.00 0.00 69 1009.4
20260906000946 87 314 0.0 0.9 0.00 0.00 0.00 67 1009.2
20260906000442 87 314 0.0 0.9 0.00 0.00 0.00 71 1009.2
20260905235942 88 313 0.0 0.0 0.00 0.00 0.00 70 1009.2
20260905235442 89 316 0.9 0.9 0.00 0.00 0.00 69 1009.3
20260905234937 90 315 0.0 0.0 0.00 0.00 0.00 64 1009.1
20260905234432 91 303 0.0 0.0 0.00 0.00 0.00 62 1008.9
20260905233926 91 280 0.9 1.7 0.00 0.00 0.00 59 1009.1
20260905233422 91 297 0.9 0.9 0.00 0.00 0.00 58 1009.2
20260905232921 92 297 0.0 0.0 0.00 0.00 0.00 57 1009.2
20260905232417 93 301 0.9 0.9 0.00 0.00 0.00 58 1009.1
20260905231912 94 300 0.9 0.9 0.00 0.00 0.00 53 1008.9
20260905231408 95 296 0.9 0.9 0.00 0.00 0.00 53 1008.9
20260905230905 95 293 0.0 0.9 0.00 0.00 0.00 52 1008.8
20260905230403 95 297 0.9 1.7 0.00 0.00 0.00 51 1009.0
20260905225901 96 294 0.9 0.9 0.00 0.00 0.00 52 1009.0
20260905225356 96 277 0.9 1.7 0.00 0.00 0.00 49 1008.9
20260905224852 97 284 2.6 2.6 0.00 0.00 0.00 49 1009.0
20260905224347 98 320 1.7 1.7 0.00 0.00 0.00 46 1009.0
20260905223841 97 306 1.7 1.7 0.00 0.00 0.00 46 1008.9
20260905223340 98 303 1.7 1.7 0.00 0.00 0.00 47 1009.2
20260905222840 98 309 0.0 0.0 0.00 0.00 0.00 46 1009.2
20260905222338 99 269 3.5 3.5 0.00 0.00 0.00 47 1009.0
20260905221835 99 303 0.9 0.9 0.00 0.00 0.00 45 1009.1
20260905221331 98 300 0.9 0.9 0.00 0.00 0.00 46 1009.0
20260905220827 98 278 2.6 2.6 0.00 0.00 0.00 46 1009.0
20260905220323 97 304 0.0 0.0 0.00 0.00 0.00 46 1009.1
20260905215822 98 316 1.7 1.7 0.00 0.00 0.00 46 1009.0
20260905215318 98 302 0.0 0.9 0.00 0.00 0.00 45 1009.2
20260905214814 99 333 2.6 3.5 0.00 0.00 0.00 44 1009.1
20260905214309 98 300 1.7 1.7 0.00 0.00 0.00 45 1009.1
20260905213804 98 278 1.7 1.7 0.00 0.00 0.00 47 1009.1
20260905213300 98 305 2.6 3.5 0.00 0.00 0.00 47 1009.3
20260905212755 99 302 0.9 1.7 0.00 0.00 0.00 45 1009.3
20260905212254 97 335 2.6 2.6 0.00 0.00 0.00 46 1009.5
20260905211749 97 253 3.5 3.5 0.00 0.00 0.00 48 1009.4
20260905211244 97 275 3.5 3.5 0.00 0.00 0.00 48 1009.2
20260905210741 99 290 1.7 1.7 0.00 0.00 0.00 46 1009.2
20260905210240 99 303 1.7 2.6 0.00 0.00 0.00 47 1009.3
20260905205739 98 267 1.7 2.6 0.00 0.00 0.00 47 1009.3
20260905205234 98 257 3.5 5.2 0.00 0.00 0.00 49 1009.4
20260905204734 98 298 2.6 5.2 0.00 0.00 0.00 47 1009.6
20260905204230 98 283 0.9 1.7 0.00 0.00 0.00 48 1009.5
20260905203729 98 292 0.0 0.9 0.00 0.00 0.00 49 1009.6
20260905203224 98 281 2.6 2.6 0.00 0.00 0.00 46 1009.8
20260905202720 97 302 2.6 3.5 0.00 0.00 0.00 48 1009.5
20260905202215 96 286 1.7 2.6 0.00 0.00 0.00 51 1009.7
20260905201711 97 275 5.2 7.0 0.00 0.00 0.00 50 1009.7
20260905201211 98 259 1.7 2.6 0.00 0.00 0.00 51 1009.8
20260905200706 99 269 2.6 2.6 0.00 0.00 0.00 46 1010.0
20260905200201 98 296 0.9 1.7 0.00 0.00 0.00 47 1010.1
20260905195700 99 273 0.9 1.7 0.00 0.00 0.00 46 1010.2
20260905195154 100 305 0.9 0.9 0.00 0.00 0.00 47 1010.5
20260905194650 98 273 1.7 1.7 0.00 0.00 0.00 47 1010.6
20260905194150 97 327 1.7 2.6 0.00 0.00 0.00 50 1010.5
20260905193649 98 21 3.5 5.2 0.00 0.00 0.00 49 1010.6
20260905193145 98 294 0.9 0.9 0.00 0.00 0.00 50 1010.5
20260905192640 97 283 1.7 1.7 0.00 0.00 0.00 50 1010.5
20260905192137 96 274 3.5 3.5 0.00 0.00 0.00 51 1010.5
20260905191636 97 290 1.7 2.6 0.00 0.00 0.00 51 1010.8
20260905191134 98 286 1.7 1.7 0.00 0.00 0.00 49 1011.0
20260905190633 97 319 0.9 1.7 0.00 0.00 0.00 49 1010.9
20260905190132 97 294 0.0 0.9 0.00 0.00 0.00 49 1010.9
20260905185631 97 293 0.9 1.7 0.00 0.00 0.00 48 1010.9
20260905185126 96 311 2.6 2.6 0.00 0.00 0.00 51 1011.2
20260905184620 96 299 3.5 5.2 0.00 0.00 0.00 50 1011.0
20260905184119 96 305 1.7 1.7 0.00 0.00 0.00 52 1011.1
20260905183618 97 293 2.6 3.5 0.00 0.00 0.00 50 1011.3
20260905183114 98 349 1.7 1.7 0.00 0.00 0.00 50 1011.3
20260905182614 96 306 0.9 0.9 0.00 0.00 0.00 55 1011.6
20260905182113 96 310 0.9 1.7 0.00 0.00 0.00 54 1011.6
20260905181608 96 253 1.7 2.6 0.00 0.00 0.00 51 1011.8
20260905181107 97 297 1.7 1.7 0.00 0.00 0.00 53 1011.7
20260905180602 98 291 0.0 0.9 0.00 0.00 0.00 51 1011.7
20260905180057 96 295 1.7 1.7 0.00 0.00 0.00 54 1011.8
20260905175556 95 302 1.7 1.7 0.00 0.00 0.00 54 1011.7
20260905175052 95 274 3.5 3.5 0.00 0.00 0.00 54 1011.9
20260905174548 96 289 1.7 2.6 0.00 0.00 0.00 55 1012.0
20260905174043 96 297 2.6 2.6 0.00 0.00 0.00 54 1011.9
20260905173540 94 293 0.9 0.9 0.00 0.00 0.00 57 1011.8
20260905173035 94 317 1.7 2.6 0.00 0.00 0.00 57 1012.1
20260905172533 94 305 2.6 3.5 0.00 0.00 0.00 58 1012.1
20260905172028 94 335 4.3 5.2 0.00 0.00 0.00 56 1011.9
20260905171525 94 303 2.6 3.5 0.00 0.00 0.00 60 1012.1
20260905171021 94 303 1.7 2.6 0.00 0.00 0.00 58 1011.9
20260905170517 95 296 0.9 1.7 0.00 0.00 0.00 59 1012.1
20260905170013 94 338 1.7 1.7 0.00 0.00 0.00 58 1012.1
20260905165513 93 322 2.6 2.6 0.00 0.00 0.00 58 1012.2
20260905165008 94 315 1.7 1.7 0.00 0.00 0.00 58 1012.3
20260905164508 93 302 0.9 0.9 0.00 0.00 0.00 60 1012.3
20260905164002 93 288 0.0 0.0 0.00 0.00 0.00 61 1012.6
20260905163459 93 267 1.7 1.7 0.00 0.00 0.00 59 1012.4
20260905162954 92 300 0.9 0.9 0.00 0.00 0.00 61 1012.6
20260905162450 92 294 2.6 3.5 0.00 0.00 0.00 61 1012.8
20260905161944 92 304 0.0 0.9 0.00 0.00 0.00 61 1012.8
20260905161444 92 301 0.0 0.9 0.00 0.00 0.00 63 1012.8
20260905160942 91 281 0.9 0.9 0.00 0.00 0.00 62 1012.9
20260905160436 91 336 0.9 1.7 0.00 0.00 0.00 63 1013.0
20260905155935 89 305 0.0 0.0 0.00 0.00 0.00 73 1013.2
20260905155430 88 302 0.0 0.0 0.00 0.00 0.00 71 1013.1
20260905154929 88 307 0.0 0.9 0.00 0.00 0.00 71 1013.2
20260905154425 87 309 0.0 0.0 0.00 0.00 0.00 73 1013.0
20260905153920 86 289 0.9 0.9 0.00 0.00 0.00 75 1013.0
20260905153417 87 306 0.9 0.9 0.00 0.00 0.00 74 1012.9
20260905152916 86 312 0.0 0.0 0.00 0.00 0.00 72 1012.8
20260905152415 85 291 0.0 0.0 0.00 0.00 0.00 75 1013.0
20260905151911 84 284 1.7 1.7 0.00 0.00 0.00 78 1013.1
20260905151407 84 271 2.6 2.6 0.00 0.00 0.00 77 1013.2
20260905150906 84 286 0.9 0.9 0.00 0.00 0.00 80 1013.2
20260905150407 83 284 1.7 1.7 0.00 0.00 0.00 81 1013.1
20260905145903 82 301 0.0 0.0 0.00 0.00 0.00 81 1013.1
20260905145358 82 301 0.0 0.9 0.00 0.00 0.00 81 1013.3
20260905144857 81 289 0.0 0.0 0.00 0.00 0.00 83 1013.3
20260905144353 81 289 0.9 0.9 0.00 0.00 0.00 84 1013.3
20260905143851 81 290 0.9 0.9 0.00 0.00 0.00 85 1013.2
20260905143346 81 297 0.0 0.9 0.00 0.00 0.00 85 1013.4
20260905142845 80 298 0.0 0.0 0.00 0.00 0.00 86 1013.3
20260905142344 80 292 1.7 1.7 0.00 0.00 0.00 86 1013.2
20260905141840 80 304 0.0 0.0 0.00 0.00 0.00 87 1012.9
20260905141335 80 296 0.0 0.0 0.00 0.00 0.00 86 1013.2
20260905140832 79 294 0.9 0.9 0.00 0.00 0.00 87 1013.2
20260905140331 79 296 0.0 0.0 0.00 0.00 0.00 87 1013.1
20260905135830 79 296 0.0 0.0 0.00 0.00 0.00 87 1013.1
20260905135326 79 296 0.0 0.0 0.00 0.00 0.00 87 1013.1
20260905134822 78 296 0.0 0.0 0.00 0.00 0.00 88 1013.1
20260905134321 78 296 0.0 0.0 0.00 0.00 0.00 88 1013.3
20260905133820 78 296 0.0 0.0 0.00 0.00 0.00 89 1013.2
20260905133316 77 296 0.0 0.0 0.00 0.00 0.00 90 1013.2
20260905132815 77 296 0.0 0.0 0.00 0.00 0.00 91 1013.2
20260905132311 77 296 0.0 0.0 0.00 0.00 0.00 91 1013.3
20260905131810 76 296 0.0 0.0 0.00 0.00 0.00 92 1013.3
20260905131306 76 296 0.0 0.0 0.00 0.00 0.00 93 1013.4
20260905130801 75 296 0.0 0.0 0.00 0.00 0.00 93 1013.5
20260905130300 75 302 0.0 0.9 0.00 0.00 0.00 95 1013.4
20260905125755 75 303 0.0 0.0 0.00 0.00 0.00 95 1013.4
20260905125250 75 303 0.0 0.0 0.00 0.00 0.00 96 1013.5
20260905124747 75 303 0.0 0.0 0.00 0.00 0.00 96 1013.4
20260905124242 74 303 0.0 0.0 0.00 0.00 0.00 97 1013.5
20260905123737 74 303 0.0 0.0 0.00 0.00 0.00 97 1013.4
20260905123235 74 303 0.0 0.0 0.00 0.00 0.00 97 1013.3
20260905122734 74 303 0.0 0.0 0.00 0.00 0.00 97 1013.2
20260905122228 73 303 0.0 0.0 0.00 0.00 0.00 97 1013.2
20260905121724 73 304 0.0 0.0 0.00 0.00 0.00 97 1013.0
20260905121220 72 304 0.0 0.0 0.00 0.00 0.00 97 1012.9
20260905120719 72 303 0.0 0.0 0.00 0.00 0.00 97 1013.2
20260905120214 72 303 0.0 0.0 0.00 0.00 0.00 97 1012.8
20260905115714 72 303 0.0 0.0 0.00 0.00 0.00 97 1013.1
20260905115208 71 303 0.0 0.0 0.00 0.00 0.00 97 1013.0
20260905114708 71 303 0.0 0.0 0.00 0.00 0.00 97 1012.9
20260905114206 71 303 0.0 0.0 0.00 0.00 0.00 97 1012.7
20260905113706 71 303 0.0 0.0 0.00 0.00 0.00 97 1012.7
20260905113203 71 303 0.0 0.0 0.00 0.00 0.00 97 1012.6
20260905112702 71 303 0.0 0.0 0.00 0.00 0.00 97 1012.4
20260905112158 71 304 0.0 0.0 0.00 0.00 0.00 97 1012.4
20260905111657 71 304 0.0 0.0 0.00 0.00 0.00 97 1012.6
20260905111157 71 303 0.0 0.0 0.00 0.00 0.00 97 1012.4
20260905110656 71 304 0.0 0.0 0.00 0.00 0.00 97 1012.4
20260905110151 71 304 0.0 0.0 0.00 0.00 0.00 97 1012.3
20260905105647 71 303 0.0 0.0 0.00 0.00 0.00 97 1012.2
20260905105145 71 304 0.0 0.0 0.00 0.00 0.00 97 1012.2
20260905104640 71 304 0.0 0.9 0.00 0.00 0.00 97 1012.0
20260905104136 71 304 0.0 0.0 0.00 0.00 0.00 97 1012.0
20260905103631 71 304 0.0 0.0 0.00 0.00 0.00 97 1011.8
20260905103127 71 304 0.0 0.0 0.00 0.00 0.00 97 1011.9
20260905102623 71 304 0.0 0.0 0.00 0.00 0.00 97 1011.9
20260905102119 71 303 0.0 0.0 0.00 0.00 0.00 97 1012.0
20260905101617 71 303 0.0 0.0 0.00 0.00 0.00 97 1011.9
20260905101116 71 303 0.0 0.0 0.00 0.00 0.00 97 1011.7
20260905100613 71 304 0.0 0.0 0.00 0.00 0.00 97 1011.7
20260905100108 71 304 0.0 0.0 0.00 0.00 0.00 97 1011.8
20260905095606 71 304 0.0 0.0 0.00 0.00 0.00 97 1011.6
20260905095102 71 304 0.0 0.0 0.00 0.00 0.00 97 1011.7
20260905094557 71 303 0.0 0.0 0.00 0.00 0.00 97 1011.7
20260905094057 71 303 0.0 0.0 0.00 0.00 0.00 96 1011.5
20260905093556 71 303 0.0 0.0 0.00 0.00 0.00 97 1011.7
20260905093053 71 304 0.0 0.0 0.00 0.00 0.00 96 1011.8
20260905092552 71 304 0.0 0.0 0.00 0.00 0.00 96 1011.5
20260905092049 72 303 0.0 0.0 0.00 0.00 0.00 96 1011.6
20260905091547 71 304 0.0 0.0 0.00 0.00 0.00 96 1011.4
20260905091043 71 303 0.0 0.0 0.00 0.00 0.00 96 1011.4
20260905090542 71 303 0.0 0.0 0.00 0.00 0.00 96 1011.4
20260905090038 71 303 0.0 0.0 0.00 0.00 0.00 96 1011.6
20260905085536 71 304 0.0 0.0 0.00 0.00 0.00 96 1011.7
20260905085032 71 303 0.0 0.0 0.00 0.00 0.00 96 1011.4
20260905084532 72 304 0.0 0.0 0.00 0.00 0.00 96 1011.6
20260905084027 71 304 0.0 0.0 0.00 0.00 0.00 96 1011.6
20260905083521 71 304 0.0 0.0 0.00 0.00 0.00 96 1011.5
20260905083018 71 303 0.0 0.0 0.00 0.00 0.00 96 1011.5
20260905082513 72 303 0.0 0.0 0.00 0.00 0.00 96 1011.6
20260905082009 72 304 0.0 0.0 0.00 0.00 0.00 96 1011.6
20260905081509 72 304 0.0 0.0 0.00 0.00 0.00 96 1011.8
20260905081009 72 304 0.0 0.0 0.00 0.00 0.00 96 1011.8
20260905080503 72 304 0.0 0.0 0.00 0.00 0.00 96 1011.8
20260905080003 72 304 0.0 0.0 0.00 0.00 0.00 96 1011.8
20260905075457 72 304 0.0 0.0 0.00 0.00 0.00 96 1011.6
20260905074955 72 304 0.0 0.0 0.00 0.00 0.00 96 1011.9
20260905074452 72 304 0.0 0.0 0.00 0.00 0.00 95 1012.0
20260905073947 72 299 0.0 0.0 0.00 0.00 0.00 95 1011.8
20260905073442 72 296 0.0 0.0 0.00 0.00 0.00 95 1011.7
20260905072937 72 296 0.0 0.0 0.00 0.00 0.00 95 1011.7
20260905072432 72 296 0.0 0.0 0.00 0.00 0.00 95 1011.8
20260905071928 72 296 0.0 0.0 0.00 0.00 0.00 95 1011.8
20260905071425 73 295 0.0 0.0 0.00 0.00 0.00 95 1011.7
20260905070924 73 299 0.0 0.0 0.00 0.00 0.00 95 1011.8
20260905070421 73 316 0.9 0.9 0.00 0.00 0.00 95 1012.0
20260905065920 73 303 0.0 0.0 0.00 0.00 0.00 95 1011.9
20260905065418 73 303 0.0 0.0 0.00 0.00 0.00 95 1011.7
20260905064914 73 303 0.0 0.0 0.00 0.00 0.00 95 1011.8
20260905064409 73 303 0.0 0.0 0.00 0.00 0.00 95 1012.0
20260905063908 73 303 0.0 0.0 0.00 0.00 0.00 95 1011.8
20260905063403 73 303 0.0 0.0 0.00 0.00 0.00 95 1011.8
20260905062900 73 303 0.0 0.0 0.00 0.00 0.00 95 1011.9
20260905062354 73 303 0.0 0.0 0.00 0.00 0.00 95 1011.9
20260905061849 73 303 0.0 0.0 0.00 0.00 0.00 95 1011.9
20260905061348 73 303 0.0 0.0 0.00 0.00 0.00 94 1012.0
20260905060843 73 303 0.0 0.0 0.00 0.00 0.00 94 1012.1
20260905060340 73 303 0.0 0.0 0.00 0.00 0.00 94 1012.0
20260905055839 73 303 0.0 0.0 0.00 0.00 0.00 94 1011.8
20260905055334 73 303 0.0 0.0 0.00 0.00 0.00 94 1011.8
20260905054833 73 303 0.0 0.0 0.00 0.00 0.00 94 1011.8
20260905054330 74 303 0.0 0.0 0.00 0.00 0.00 94 1012.0
20260905053829 74 302 0.0 0.0 0.00 0.00 0.00 94 1011.9
20260905053325 73 302 0.0 0.0 0.00 0.00 0.00 94 1011.8
20260905052825 74 301 0.0 0.0 0.00 0.00 0.00 94 1011.9
20260905052325 74 301 0.0 0.0 0.00 0.00 0.00 93 1011.9
20260905051824 74 311 0.0 0.0 0.00 0.00 0.00 93 1011.8
20260905051320 74 312 0.0 0.0 0.00 0.00 0.00 94 1012.1
20260905050817 74 311 0.0 0.0 0.00 0.00 0.00 94 1011.8
20260905050313 74 311 0.0 0.0 0.00 0.00 0.00 94 1011.9
20260905045808 74 311 0.0 0.0 0.00 0.00 0.00 94 1011.9
20260905045305 74 311 0.0 0.0 0.00 0.00 0.00 93 1012.1
20260905044759 74 311 0.0 0.0 0.00 0.00 0.00 93 1012.1
20260905044254 74 311 0.0 0.0 0.00 0.00 0.00 93 1012.0
20260905043752 75 311 0.0 0.0 0.00 0.00 0.00 92 1012.3
20260905043247 75 311 0.0 0.0 0.00 0.00 0.00 92 1012.2
20260905042742 75 311 0.0 0.0 0.00 0.00 0.00 92 1012.1
20260905042241 75 311 0.0 0.0 0.00 0.00 0.00 91 1012.1
20260905041737 75 313 0.0 0.9 0.00 0.00 0.00 91 1012.3
20260905041232 75 312 0.9 0.9 0.00 0.00 0.00 92 1012.1
20260905040727 75 311 0.0 0.0 0.00 0.00 0.00 92 1012.3
20260905040226 75 312 0.0 0.0 0.00 0.00 0.00 92 1012.2